Location: Pic du Midi - T1M
(42.9366°N, 0.1426°E)
Time: 16:54:36
(UTC+01:00)

DX 1 - Pass Details

Date: 27 September 2021
Orbit: 618 x 630 km, 98.4° (Epoch: 21 October)

Event Time Altitude Azimuth Distance (km) Brightness Sun altitude
Rises 21:39:29 0° 4° (N) 2,898 ? -31.1°
Reaches altitude 10° 21:41:48 10° 356° (N) 1,989 ? -31.4°
Enters shadow 21:44:18 27° 329° (NNW) 1,183 ? -31.8°
